Weather History for KATT - December, 2013

Change the Weather History Date:

Wednesday, December 25, 2013

  Actual Average Record
Temperature  
Mean Temperature 50 °F 51 °F  
Max Temperature 58 °F 61 °F 90 °F (1955)
Min Temperature 41 °F 41 °F 10 °F (1983)
Degree Days  
Heating Degree Days 15 14  
Month to date heating degree days 366 314  
Since 1 July heating degree days 640 526  
Cooling Degree Days 0 0  
Month to date cooling degree days 15 6  
Year to date cooling degree days 3464 3132  
Moisture  
Dew Point 40 °F    
Average Humidity 71    
Maximum Humidity 86    
Minimum Humidity 56    
Precipitation  
Precipitation T in 0.08 in 1.52 in (2000)
Month to date precipitation 0.72 1.93  
Year to date precipitation 41.03 33.85  
Snow  
Snow 0.00 in - - ()
Month to date snowfall 0.0  
Since 1 July snowfall 0.0  
Snow Depth 0.00 in    
Sea Level Pressure  
Sea Level Pressure 30.33 in    
Wind  
Wind Speed 2 mph (NE)    
Max Wind Speed 10 mph    
Max Gust Speed 16 mph    
Visibility 10 miles    
Events      
T = Trace of Precipitation, MM = Missing Value Source: NWS Daily Summary

Daily Weather History Graph

Daily Weather History Graph

Search for Another Location

Airport or City:

Trip Planner

Search our weather history database for the weather conditions in past years. The results will help you decide how hot, cold, wet, or windy it might be!

Date:

Astronomy

Dec. 25, 2013 Rise Set
Actual Time 7:25 AM CST 5:37 PM CST
Civil Twilight 6:58 AM CST 6:03 PM CST
Nautical Twilight 6:29 AM CST 6:33 PM CST
Astronomical Twilight 5:59 AM CST 7:03 PM CST
Moon 12:17 AM CST (12/25) 12:21 PM CST (12/25)
Length of Visible Light 11h 04m
Length of Day
10h 11m
Waning Gibbous, 48% of the Moon is Illuminated
Dec 25
Waning Gibbous
Jan 1
New
Jan 7
First Quarter
Jan 15
Full
Jan 23
Last Quarter

Hourly Weather History & Observations

Time (CST) Temp. Windchill Dew Point Humidity Pressure Visibility Wind Dir Wind Speed Gust Speed Precip Events Conditions
12:51 AM 44.1 °F 42.5 °F 37.9 °F 79% 30.29 in 10.0 mi South 3.5 mph - N/A   Scattered Clouds
1:51 AM 43.0 °F - 37.9 °F 82% 30.28 in 10.0 mi Calm Calm - N/A   Clear
2:09 AM 42.1 °F - 37.9 °F 85% 30.27 in 10.0 mi Calm Calm - N/A   Mostly Cloudy
2:16 AM 43.0 °F - 37.9 °F 82% 30.27 in 9.0 mi Calm Calm - N/A   Scattered Clouds
2:51 AM 42.1 °F - 37.9 °F 85% 30.28 in 8.0 mi Calm Calm - N/A   Clear
3:51 AM 42.1 °F - 37.9 °F 85% 30.27 in 8.0 mi Calm Calm - N/A   Mostly Cloudy
4:51 AM 41.0 °F - 37.0 °F 86% 30.27 in 7.0 mi Calm Calm - N/A   Clear
5:51 AM 42.1 °F 40.2 °F 37.9 °F 85% 30.28 in 9.0 mi NE 3.5 mph - N/A   Overcast
6:51 AM 42.1 °F 40.2 °F 37.9 °F 85% 30.30 in 10.0 mi NNE 3.5 mph - N/A   Overcast
7:51 AM 43.0 °F - 37.9 °F 82% 30.31 in 10.0 mi Calm Calm - N/A   Overcast
8:51 AM 46.9 °F - 39.0 °F 74% 30.34 in 10.0 mi Calm Calm - N/A   Mostly Cloudy
9:51 AM 48.9 °F - 39.9 °F 71% 30.36 in 10.0 mi Calm Calm - N/A   Overcast
10:51 AM 54.0 °F - 41.0 °F 62% 30.36 in 10.0 mi ESE 4.6 mph - N/A   Overcast
11:51 AM 54.0 °F - 42.1 °F 64% 30.37 in 10.0 mi Calm Calm - N/A   Overcast
12:49 PM 55.4 °F - 42.8 °F 63% 30.32 in 10.0 mi Calm Calm - 0.00 in   Overcast
12:51 PM 55.0 °F - 43.0 °F 64% 30.33 in 10.0 mi Calm Calm - 0.00 in   Overcast
1:51 PM 55.9 °F - 42.1 °F 60% 30.30 in 10.0 mi ESE 3.5 mph - N/A   Mostly Cloudy
2:51 PM 57.0 °F - 43.0 °F 59% 30.30 in 10.0 mi ESE 4.6 mph - N/A   Overcast
3:11 PM 55.9 °F - 43.0 °F 62% 30.29 in 10.0 mi East 4.6 mph - N/A   Overcast
3:51 PM 55.9 °F - 43.0 °F 62% 30.31 in 10.0 mi Variable 3.5 mph - N/A   Overcast
4:10 PM 55.9 °F - 43.0 °F 62% 30.30 in 10.0 mi ESE 3.5 mph - N/A   Overcast
4:51 PM 55.0 °F - 43.0 °F 64% 30.32 in 10.0 mi Variable 3.5 mph - N/A   Overcast
5:51 PM 54.0 °F - 43.0 °F 66% 30.32 in 10.0 mi ESE 3.5 mph - N/A   Overcast
6:51 PM 53.1 °F - 44.1 °F 71% 30.33 in 10.0 mi East 3.5 mph - N/A   Overcast
7:51 PM 53.1 °F - 44.1 °F 71% 30.36 in 10.0 mi Calm Calm - N/A   Overcast
8:51 PM 53.1 °F - 44.1 °F 71% 30.39 in 10.0 mi North 5.8 mph - N/A   Overcast
9:04 PM 53.1 °F - 44.1 °F 71% 30.38 in 10.0 mi North 5.8 mph - N/A   Overcast
9:51 PM 52.0 °F - 37.9 °F 59% 30.40 in 10.0 mi North 6.9 mph - N/A   Overcast
10:15 PM 52.0 °F - 37.0 °F 57% 30.39 in 10.0 mi North 6.9 mph - N/A   Overcast
10:51 PM 50.0 °F - 36.0 °F 59% 30.41 in 10.0 mi NNW 3.5 mph - N/A   Overcast
11:51 PM 48.9 °F - 36.0 °F 61% 30.41 in 10.0 mi North 4.6 mph - N/A   Overcast
11:58 PM 48.9 °F - 36.0 °F 61% 30.41 in 10.0 mi NNW 4.6 mph - N/A   Overcast